Location: Wanzleben
(52.0609°N, 11.4408°E)
Time: 18:51:46
(UTC+00:00)

COSMOS 2455 - Pass Details

Date: 18 September 2020
Orbit: 898 x 911 km, 67.1° (Epoch: 22 October)

Event Time Altitude Azimuth Distance (km) Brightness Sun altitude
Exits shadow 22:35:51 34° 30° (NNE) 1,450 4.1 -36.1°
Drops below altitude 10° 22:39:11 10° 37° (NE) 2,608 5.7 -36.2°
Sets 22:41:43 0° 39° (NE) 3,554 6.5 -36.2°
